Howe Sound: Past 24 Hour Conditions

 

Victoria Int'l Airport

07:00 AM PDT 24 April 2014
This table is a summary of hourly weather conditions for the past 24 hours.
Date / Time
(PDT)
Wind(knots) Conditions Visibility(km) Pressure(kPa) Air tempC) Relative humidity(%) Dew pointC)
24 April 2014
7:00 WSW 11 gust 20 Partly Cloudy 32 100.2 10 81 7
6:00 S 9 Partly Cloudy 16 100.1 9 94 9
5:00 SSE 8 gust 15 Light Rain 2 100.1 10 97 9
4:00 SE 14 gust 19 Light Rain 2 100.0 9 97 9
3:00 ESE 10 gust 19 Light Rain 3 100.0 9 95 9
2:00 E 7 Light Rain 5 100.1 9 97 8
1:00 E 9 Light Rain 6 100.2 8 96 8
0:00 E 8 Rain 6 100.3 8 96 8
23 April 2014
23:00 E 9 Rain 6 100.4 8 93 7
22:00 E 9 Light Rain 10 100.5 9 91 7
21:00 E 10 Light Rain 10 100.6 9 91 8
20:00 SE 11 Light Rain 48 100.6 10 74 6
19:00 ESE 10 gust 15 Cloudy 48 100.7 11 71 6
18:00 SE 9 gust 15 Cloudy 48 100.8 11 73 6
17:00 SSE 13 Partly Cloudy 48 100.9 11 75 6
16:00 SE 12 Partly Cloudy 48 101.0 11 73 7
15:00 SE 10 gust 16 Partly Cloudy 48 101.1 12 67 6
14:00 SE 10 Mostly Cloudy 48 101.1 11 67 5
13:00 SE 12 Mainly Sunny 48 101.2 10 72 5
12:00 SSE 12 gust 19 Partly Cloudy 48 101.2 11 74 6
11:00 SE 11 gust 17 Partly Cloudy 32 101.2 10 82 7
10:00 SE 13 Partly Cloudy 32 101.2 8 85 6
9:00 SE 9 Mostly Cloudy 32 101.2 9 86 7
8:00 SE 8 Mostly Cloudy 32 101.2 8 88 6
7:00 SSE 6 Mostly Cloudy 32 101.2 7 94 6
 
Map of Pacific - South Coast marine weather areas Tsawwassen Ferry Terminal South Nomad - 46036 Sentry Shoal - 46131 South Brooks - 46132 Halibut Bank - 46146 South Moresby - 46147 South Hecate Strait - 46185 West Sea Otter - 46204 La Perouse Bank - 46206 East Dellwood - 46207 Discovery Island Esquimalt Harbour Kelp Reefs Malahat Race Rocks Lightstation Saturna Island Sheringham Point University of Victoria Victoria Gonzales Victoria Int'l Airport Ballenas Islands Campbell River Airport Comox Airport Entrance Island Fanny Island Nanaimo Airport Port Hardy Airport Sisters Islets Estevan Point Sartine Island Solander Island Tofino Airport Grief Point Powell River Airport Sechelt Cape St.James Bella Bella Airport Bella Coola Airport Cathedral Point Herbert Island Point Atkinson Sand Heads Lightstation Vancouver Harbour Vancouver Int'l Airport West Vancouver Port Alberni Howe Sound - Pam Rocks Squamish Airport